Weather History for KDCU - April, 2013

Change the Weather History Date:

Thursday, April 4, 2013

  Actual Average Record
Temperature  
Mean Temperature 45 °F -  
Max Temperature 46 °F 70 °F 85 °F (1969)
Min Temperature 44 °F 46 °F 28 °F (1992)
Degree Days  
Heating Degree Days 20    
Moisture  
Dew Point 43 °F    
Average Humidity 92    
Maximum Humidity 100    
Minimum Humidity 86    
Precipitation  
Precipitation 0.51 in - - ()
Sea Level Pressure  
Sea Level Pressure 30.03 in    
Wind  
Wind Speed 6 mph (East)    
Max Wind Speed 12 mph    
Max Gust Speed 24 mph    
Visibility 5 miles    
Events Rain    
Averages and records for this station are not official NWS values.
T = Trace of Precipitation, MM = Missing Value Source: NWS Daily Summary

Daily Weather History Graph

Daily Weather History Graph

Search for Another Location

Airport or City:

Trip Planner

Search our weather history database for the weather conditions in past years. The results will help you decide how hot, cold, wet, or windy it might be!

Date:

Astronomy

Apr. 04, 2013 Rise Set
Actual Time 6:30 AM CDT 7:11 PM CDT
Civil Twilight 6:04 AM CDT 7:36 PM CDT
Nautical Twilight 5:34 AM CDT 8:07 PM CDT
Astronomical Twilight 5:04 AM CDT 8:37 PM CDT
Moon 2:43 AM CDT (4/4) 1:42 PM CDT (4/4)
Length of Visible Light 13h 32m
Length of Day
12h 41m
Waning Crescent, 33% of the Moon is Illuminated
Apr 4
Waning Crescent
Apr 10
New
Apr 18
First Quarter
Apr 25
Full
May 2
Last Quarter

Hourly Weather History & Observations

Time (CDT) Temp. Windchill Dew Point Humidity Pressure Visibility Wind Dir Wind Speed Gust Speed Precip Events Conditions
12:53 AM 45.0 °F 43.5 °F 41.0 °F 86% 30.13 in 8.0 mi ENE 3.5 mph - 0.05 in Rain Light Rain
1:53 AM 45.0 °F 41.8 °F 42.1 °F 90% 30.09 in 8.0 mi ENE 5.8 mph - 0.01 in Rain Light Rain
2:53 AM 45.0 °F 41.8 °F 41.0 °F 86% 30.06 in 5.0 mi NE 5.8 mph - 0.02 in Rain Light Rain
3:53 AM 45.0 °F 42.6 °F 43.0 °F 93% 30.04 in 8.0 mi NE 4.6 mph - 0.03 in Rain Light Rain
4:11 AM 44.6 °F 42.2 °F 42.8 °F 93% 30.03 in 6.0 mi NE 4.6 mph - 0.02 in Rain Light Rain
4:23 AM 44.6 °F 40.7 °F 42.8 °F 93% 30.03 in 4.0 mi ENE 6.9 mph - 0.04 in Rain Light Rain
4:53 AM 46.0 °F 43.1 °F 44.1 °F 93% 30.03 in 4.0 mi East 5.8 mph - 0.09 in Rain Rain
5:02 AM 46.4 °F 41.9 °F 44.6 °F 93% 30.03 in 4.0 mi East 9.2 mph - 0.05 in Rain Heavy Rain
5:33 AM 46.4 °F 43.5 °F 44.6 °F 93% 30.03 in 3.0 mi East 5.8 mph 24.2 mph 0.11 in Rain Light Rain
5:53 AM 46.0 °F 41.4 °F 44.1 °F 93% 30.05 in 4.0 mi ESE 9.2 mph - 0.12 in Rain Light Rain
6:13 AM 44.6 °F 39.2 °F 42.8 °F 93% 30.04 in 2.5 mi East 10.4 mph - 0.02 in Rain Light Rain
6:23 AM 44.6 °F 40.2 °F 42.8 °F 93% 30.04 in 3.0 mi East 8.1 mph 17.3 mph 0.03 in Rain Light Rain
6:31 AM 44.6 °F 41.4 °F 42.8 °F 93% 30.04 in 4.0 mi East 5.8 mph - 0.03 in Rain Light Rain
6:53 AM 45.0 °F 40.6 °F 43.0 °F 93% 30.05 in 3.0 mi East 8.1 mph - 0.05 in Rain Light Rain
7:00 AM 44.6 °F 40.7 °F 42.8 °F 93% 30.05 in 2.5 mi East 6.9 mph - 0.01 in Rain Light Rain
7:45 AM 44.6 °F 42.2 °F 42.8 °F 93% 30.06 in 3.0 mi East 4.6 mph - 0.06 in Rain Light Rain
7:53 AM 45.0 °F 41.2 °F 43.0 °F 93% 30.06 in 3.0 mi East 6.9 mph - 0.07 in Rain Light Rain
8:53 AM 46.0 °F 41.9 °F 44.1 °F 93% 30.05 in 2.5 mi East 8.1 mph 18.4 mph 0.02 in Rain Light Rain
9:01 AM 46.4 °F 43.5 °F 42.8 °F 87% 30.05 in 3.0 mi East 5.8 mph - 0.00 in Rain Light Rain
9:16 AM 46.4 °F 42.4 °F 42.8 °F 87% 30.05 in 5.0 mi ESE 8.1 mph - 0.00 in   Overcast
9:39 AM 46.4 °F 42.9 °F 42.8 °F 87% 30.05 in 6.0 mi East 6.9 mph - 0.00 in   Overcast
9:46 AM 46.4 °F 42.9 °F 42.8 °F 87% 30.05 in 7.0 mi East 6.9 mph - 0.00 in   Overcast
9:49 AM 46.4 °F 41.9 °F 42.8 °F 87% 30.05 in 8.0 mi East 9.2 mph - 0.00 in   Overcast
9:53 AM 46.0 °F 40.6 °F 43.0 °F 89% 30.05 in 8.0 mi East 11.5 mph 17.3 mph 0.00 in   Overcast
10:21 AM 46.4 °F 42.4 °F 42.8 °F 87% 30.06 in 4.0 mi East 8.1 mph - 0.00 in Rain Light Rain
10:53 AM 46.0 °F 41.9 °F 43.0 °F 89% 30.07 in 5.0 mi ESE 8.1 mph - 0.00 in   Overcast
11:28 AM 44.6 °F 39.7 °F 42.8 °F 93% 30.06 in 3.0 mi ESE 9.2 mph 19.6 mph 0.02 in Rain Light Rain
11:39 AM 44.6 °F 39.2 °F 42.8 °F 93% 30.06 in 4.0 mi East 10.4 mph - 0.02 in Rain Light Rain
11:53 AM 45.0 °F 40.1 °F 43.0 °F 93% 30.06 in 3.0 mi East 9.2 mph - 0.02 in Rain Light Rain
12:49 PM 46.4 °F 43.5 °F 44.6 °F 93% 30.04 in 6.0 mi East 5.8 mph - 0.00 in   Overcast
12:53 PM 46.0 °F 42.5 °F 44.1 °F 93% 30.04 in 6.0 mi East 6.9 mph - 0.00 in   Overcast
1:20 PM 46.4 °F 41.9 °F 44.6 °F 93% 30.03 in 2.5 mi East 9.2 mph - 0.00 in Rain Light Rain
1:40 PM 46.4 °F 41.5 °F 44.6 °F 93% 30.02 in 2.5 mi East 10.4 mph - 0.00 in Rain Light Rain
1:53 PM 46.0 °F 41.9 °F 44.1 °F 93% 30.02 in 3.0 mi East 8.1 mph 16.1 mph 0.01 in   Overcast
2:00 PM 46.4 °F 42.4 °F 44.6 °F 93% 30.02 in 3.0 mi East 8.1 mph - 0.00 in Rain Light Rain
2:08 PM 44.6 °F 40.2 °F 44.6 °F 100% 30.02 in 2.5 mi East 8.1 mph - 0.00 in Rain Light Rain
2:19 PM 44.6 °F 39.2 °F 42.8 °F 93% 30.02 in 3.0 mi East 10.4 mph - 0.00 in Rain Light Rain
2:53 PM 45.0 °F 40.6 °F 43.0 °F 93% 30.01 in 3.0 mi East 8.1 mph - 0.00 in Rain Light Rain
2:59 PM 44.6 °F 39.7 °F 42.8 °F 93% 30.01 in 2.5 mi East 9.2 mph - 0.00 in Rain Light Rain
3:19 PM 44.6 °F 40.2 °F 42.8 °F 93% 30.00 in 3.0 mi East 8.1 mph - 0.00 in Rain Light Rain
3:26 PM 44.6 °F 40.7 °F 42.8 °F 93% 29.99 in 2.5 mi East 6.9 mph - 0.01 in Rain Light Rain
3:39 PM 44.6 °F 40.7 °F 42.8 °F 93% 30.00 in 3.0 mi East 6.9 mph - 0.01 in Rain Light Rain
3:53 PM 45.0 °F 39.7 °F 43.0 °F 93% 30.00 in 4.0 mi East 10.4 mph - 0.01 in Rain Light Rain
4:06 PM 44.6 °F 40.2 °F 42.8 °F 93% 30.00 in 7.0 mi ENE 8.1 mph - 0.01 in Rain Light Rain
4:53 PM 45.0 °F 41.2 °F 42.1 °F 90% 30.00 in 10.0 mi East 6.9 mph - 0.01 in   Overcast
5:49 PM 44.6 °F 41.4 °F 42.8 °F 93% 30.00 in 5.0 mi East 5.8 mph - N/A   Overcast
5:53 PM 44.1 °F 41.5 °F 43.0 °F 96% 30.00 in 5.0 mi ESE 4.6 mph - N/A   Overcast
6:11 PM 44.6 °F 40.2 °F 42.8 °F 93% 29.99 in 4.0 mi East 8.1 mph - N/A   Overcast
6:53 PM 44.1 °F 41.5 °F 42.1 °F 93% 29.99 in 10.0 mi East 4.6 mph - N/A   Overcast
7:53 PM 44.1 °F - 41.0 °F 89% 29.99 in 10.0 mi Calm Calm - N/A   Overcast
8:53 PM 44.1 °F - 41.0 °F 89% 30.01 in 10.0 mi Calm Calm - N/A   Overcast
9:53 PM 45.0 °F - 42.1 °F 90% 30.02 in 10.0 mi Calm Calm - N/A   Overcast
10:03 PM 44.6 °F - 42.8 °F 93% 30.01 in 9.0 mi Calm Calm - N/A   Overcast
10:53 PM 45.0 °F - 43.0 °F 93% 30.02 in 7.0 mi Calm Calm - N/A   Overcast
11:53 PM 45.0 °F - 43.0 °F 93% 30.01 in 6.0 mi Calm Calm - 0.00 in Rain Light Rain